Hourly Data Report for October 04, 2015

All times are specified in Local Standard Time (LST). Add 1 hour to adjust for Daylight Saving Time where and when it is observed.

TORONTO INTL A
ONTARIO

43°40'36.000" N
79°37'50.000" W
173.40 m
6158731
71624
YYZ

Download Data

Hourly Data (October 2015)
Hourly Data Report for October 4, 2015
Temp Definition
°C
Dew Point Temp Definition
°C
Rel Hum Definition
%
Wind Dir Definition
10's deg

Wind Spd Definition
km/h
Visibility Definition
km
Stn Press Definition
kPa
Hmdx Definition


Wind Chill Definition


Weather Definition


TIME
00:00 Legend Double Dagger 9.5 6.2 80 10 35 9.7 100.64     Rain
01:00 Legend Double Dagger 9.8 6.2 78 11 25 24.1 100.61     Rain
02:00 Legend Double Dagger 9.9 6.1 77 11 28 24.1 100.58     LegendNANA
03:00 Legend Double Dagger 10.3 5.7 73 11 18 24.1 100.56     LegendNANA
04:00 Legend Double Dagger 9.7 6.4 80 10 24 24.1 100.54     Cloudy
05:00 Legend Double Dagger 9.3 6.8 84 10 22 24.1 100.55     LegendNANA
06:00 Legend Double Dagger 9.7 6.8 82 9 14 24.1 100.57     LegendNANA
07:00 Legend Double Dagger 10.1 6.8 80 10 24 24.1 100.58     Mostly Cloudy
08:00 Legend Double Dagger 10.6 6.6 76 11 25 24.1 100.59     LegendNANA
09:00 Legend Double Dagger 11.3 6.5 72 11 23 24.1 100.60     LegendNANA
10:00 Legend Double Dagger 12.6 7.3 70 13 19 24.1 100.58     Mostly Cloudy
11:00 Legend Double Dagger 13.4 7.2 66 11 16 24.1 100.54     LegendNANA
12:00 Legend Double Dagger 13.6 7.4 66 10 17 24.1 100.52     LegendNANA
13:00 Legend Double Dagger 13.7 7.1 64 9 18 24.1 100.47     Mostly Cloudy
14:00 Legend Double Dagger 13.4 8.1 70 10 15 24.1 100.43     LegendNANA
15:00 Legend Double Dagger 13.5 7.8 68 10 17 24.1 100.41     LegendNANA
16:00 Legend Double Dagger 13.4 7.9 69 10 14 24.1 100.38     Mostly Cloudy
17:00 Legend Double Dagger 13.1 7.6 69 10 15 24.1 100.32     LegendNANA
18:00 Legend Double Dagger 13.0 7.7 70 9 12 24.1 100.36     LegendNANA
19:00 Legend Double Dagger 13.0 7.9 71 9 8 24.1 100.37     Mostly Cloudy
20:00 Legend Double Dagger 12.4 7.9 74 9 8 24.1 100.36     LegendNANA
21:00 Legend Double Dagger 12.1 6.6 69 9 10 24.1 100.34     LegendNANA
22:00 Legend Double Dagger 11.2 7.0 75 5 7 24.1 100.31     Mainly Clear
23:00 Legend Double Dagger 10.7 6.7 76 3 8 24.1 100.29     LegendNANA

Notes on Data Quality.

Legend

  • E = Estimated
  • M = Missing
  • NA = Not Available
  • ‡ = Partner data that is not subject to review by the National Climate Archives
Date modified: